Information on these data can be found in provided Readme document
Contact Info: Zachary Fasnacht (zachary.fasnacht@ssaihq.com); Nickolay Krotkov (nickolay.a.krotkov@nasa.gov); Lok Lamsal (lok.lamsal@nasa.gov)

FillValue: -999.
ScaleFactor: 1e15
Units: molecules/cm^2

Date(yyyy-mm-dd),City,Country,LonCenter,LatCenter,BoundingCoordinates,Median,Q1,Q3,Mean,Baseline_Median,Baseline_Q1,Baseline_Q3,Baseline_Mean,NumGoodSamples,NumTotalSamples
2015-01-01,Karachi,Pakistan,67.0501,24.8667,[66.5501 24.3667 67.5501 25.3667],2.72,1.632,3.999,3.684,3.158,1.722,5.034,3.912,215.0,544.0
2015-01-02,Karachi,Pakistan,67.0501,24.8667,[66.5501 24.3667 67.5501 25.3667],2.728,1.658,4.235,3.663,3.14,1.66,5.154,3.922,239.0,524.0
2015-01-03,Karachi,Pakistan,67.0501,24.8667,[66.5501 24.3667 67.5501 25.3667],2.828,1.658,4.802,4.01,2.955,1.568,5.155,3.908,208.0,541.0
2015-01-04,Karachi,Pakistan,67.0501,24.8667,[66.5501 24.3667 67.5501 25.3667],2.521,1.462,4.351,3.429,2.84,1.529,4.888,3.75,207.0,530.0
2015-01-05,Karachi,Pakistan,67.0501,24.8667,[66.5501 24.3667 67.5501 25.3667],2.283,1.393,4.347,3.309,2.743,1.508,4.899,3.702,229.0,549.0
2015-01-06,Karachi,Pakistan,67.0501,24.8667,[66.5501 24.3667 67.5501 25.3667],2.283,1.369,4.344,3.169,2.63,1.466,4.748,3.611,215.0,539.0
2015-01-07,Karachi,Pakistan,67.0501,24.8667,[66.5501 24.3667 67.5501 25.3667],2.449,1.369,4.35,3.196,2.741,1.511,4.697,3.585,241.0,539.0
2015-01-08,Karachi,Pakistan,67.0501,24.8667,[66.5501 24.3667 67.5501 25.3667],2.34,1.268,4.488,3.22,2.703,1.449,4.741,3.637,222.0,550.0
2015-01-09,Karachi,Pakistan,67.0501,24.8667,[66.5501 24.3667 67.5501 25.3667],2.283,1.282,4.347,3.204,2.638,1.465,4.498,3.568,242.0,526.0
2015-01-10,Karachi,Pakistan,67.0501,24.8667,[66.5501 24.3667 67.5501 25.3667],2.521,1.358,4.665,3.423,2.613,1.44,4.556,3.572,216.0,488.0
2015-01-11,Karachi,Pakistan,67.0501,24.8667,[66.5501 24.3667 67.5501 25.3667],2.427,1.358,4.347,3.18,2.429,1.408,4.267,3.409,248.0,477.0
2015-01-12,Karachi,Pakistan,67.0501,24.8667,[66.5501 24.3667 67.5501 25.3667],2.373,1.259,4.326,3.157,2.49,1.335,4.177,3.363,229.0,503.0
2015-01-13,Karachi,Pakistan,67.0501,24.8667,[66.5501 24.3667 67.5501 25.3667],2.28,1.259,4.098,2.982,2.476,1.336,4.288,3.429,200.0,487.0
2015-01-14,Karachi,Pakistan,67.0501,24.8667,[66.5501 24.3667 67.5501 25.3667],2.28,1.259,4.067,2.981,2.52,1.334,4.588,3.499,214.0,495.0
2015-01-15,Karachi,Pakistan,67.0501,24.8667,[66.5501 24.3667 67.5501 25.3667],2.214,1.217,4.067,2.761,2.498,1.365,4.738,3.519,193.0,497.0
2015-01-16,Karachi,Pakistan,67.0501,24.8667,[66.5501 24.3667 67.5501 25.3667],2.261,1.259,4.067,2.859,2.474,1.371,4.673,3.476,214.0,486.0
2015-01-17,Karachi,Pakistan,67.0501,24.8667,[66.5501 24.3667 67.5501 25.3667],2.261,1.217,3.99,2.782,2.478,1.341,4.69,3.513,190.0,497.0
2015-01-18,Karachi,Pakistan,67.0501,24.8667,[66.5501 24.3667 67.5501 25.3667],2.265,1.259,3.99,2.796,2.649,1.496,4.874,3.632,211.0,476.0
2015-01-19,Karachi,Pakistan,67.0501,24.8667,[66.5501 24.3667 67.5501 25.3667],2.384,1.298,3.961,2.926,2.748,1.524,5.249,3.817,180.0,493.0
2015-01-20,Karachi,Pakistan,67.0501,24.8667,[66.5501 24.3667 67.5501 25.3667],2.731,1.47,4.519,3.132,2.814,1.572,5.336,3.823,177.0,480.0
2015-01-21,Karachi,Pakistan,67.0501,24.8667,[66.5501 24.3667 67.5501 25.3667],2.58,1.465,4.328,3.093,2.875,1.582,5.261,3.861,201.0,500.0
2015-01-22,Karachi,Pakistan,67.0501,24.8667,[66.5501 24.3667 67.5501 25.3667],2.58,1.47,4.574,3.174,2.917,1.59,5.572,3.957,184.0,488.0
2015-01-23,Karachi,Pakistan,67.0501,24.8667,[66.5501 24.3667 67.5501 25.3667],2.58,1.445,4.91,3.223,2.83,1.53,5.431,3.774,209.0,488.0
2015-01-24,Karachi,Pakistan,67.0501,24.8667,[66.5501 24.3667 67.5501 25.3667],2.58,1.395,4.91,3.243,2.878,1.542,5.511,3.838,189.0,497.0
2015-01-25,Karachi,Pakistan,67.0501,24.8667,[66.5501 24.3667 67.5501 25.3667],2.533,1.279,4.818,3.149,2.967,1.558,5.409,3.822,195.0,522.0
2015-01-26,Karachi,Pakistan,67.0501,24.8667,[66.5501 24.3667 67.5501 25.3667],2.681,1.279,5.341,3.452,2.971,1.544,5.404,3.912,163.0,530.0
2015-01-27,Karachi,Pakistan,67.0501,24.8667,[66.5501 24.3667 67.5501 25.3667],2.065,1.073,4.328,2.908,2.864,1.555,5.343,3.852,196.0,523.0
2015-01-28,Karachi,Pakistan,67.0501,24.8667,[66.5501 24.3667 67.5501 25.3667],2.083,1.073,4.328,2.912,2.736,1.543,5.151,3.69,194.0,548.0
2015-01-29,Karachi,Pakistan,67.0501,24.8667,[66.5501 24.3667 67.5501 25.3667],2.065,1.106,4.214,2.873,2.653,1.52,5.068,3.66,199.0,538.0
2015-01-30,Karachi,Pakistan,67.0501,24.8667,[66.5501 24.3667 67.5501 25.3667],2.002,1.064,4.328,2.902,2.635,1.496,4.977,3.618,230.0,547.0
2015-01-31,Karachi,Pakistan,67.0501,24.8667,[66.5501 24.3667 67.5501 25.3667],2.002,0.977,4.081,2.815,2.597,1.462,4.768,3.567,209.0,546.0
2015-02-01,Karachi,Pakistan,67.0501,24.8667,[66.5501 24.3667 67.5501 25.3667],2.002,0.947,3.841,2.75,2.592,1.439,4.67,3.458,231.0,531.0
2015-02-02,Karachi,Pakistan,67.0501,24.8667,[66.5501 24.3667 67.5501 25.3667],1.915,0.91,3.841,2.732,2.589,1.432,4.61,3.434,210.0,541.0
2015-02-03,Karachi,Pakistan,67.0501,24.8667,[66.5501 24.3667 67.5501 25.3667],1.859,0.884,3.617,2.58,2.591,1.4,4.491,3.303,230.0,519.0
2015-02-04,Karachi,Pakistan,67.0501,24.8667,[66.5501 24.3667 67.5501 25.3667],1.481,0.71,2.479,2.263,2.551,1.387,4.211,3.293,199.0,536.0
2015-02-05,Karachi,Pakistan,67.0501,24.8667,[66.5501 24.3667 67.5501 25.3667],1.481,0.769,2.795,2.234,2.456,1.364,4.05,3.2,196.0,524.0
2015-02-06,Karachi,Pakistan,67.0501,24.8667,[66.5501 24.3667 67.5501 25.3667],1.43,0.681,2.531,2.042,2.379,1.309,3.898,3.02,221.0,546.0
2015-02-07,Karachi,Pakistan,67.0501,24.8667,[66.5501 24.3667 67.5501 25.3667],1.425,0.677,2.531,1.962,2.451,1.337,3.882,3.049,205.0,536.0
2015-02-08,Karachi,Pakistan,67.0501,24.8667,[66.5501 24.3667 67.5501 25.3667],1.361,0.626,2.479,1.925,2.419,1.319,3.8,2.982,231.0,538.0
2015-02-09,Karachi,Pakistan,67.0501,24.8667,[66.5501 24.3667 67.5501 25.3667],1.425,0.678,2.569,1.965,2.356,1.329,3.844,3.005,225.0,549.0
2015-02-10,Karachi,Pakistan,67.0501,24.8667,[66.5501 24.3667 67.5501 25.3667],1.471,0.71,2.663,2.129,2.249,1.334,3.645,2.873,244.0,527.0
2015-02-11,Karachi,Pakistan,67.0501,24.8667,[66.5501 24.3667 67.5501 25.3667],1.741,0.732,3.298,2.344,2.313,1.333,3.792,2.947,211.0,485.0
2015-02-12,Karachi,Pakistan,67.0501,24.8667,[66.5501 24.3667 67.5501 25.3667],1.686,0.747,3.115,2.206,2.222,1.261,3.875,2.916,242.0,475.0
2015-02-13,Karachi,Pakistan,67.0501,24.8667,[66.5501 24.3667 67.5501 25.3667],1.612,0.678,3.115,2.175,2.263,1.291,3.964,2.956,223.0,495.0
2015-02-14,Karachi,Pakistan,67.0501,24.8667,[66.5501 24.3667 67.5501 25.3667],1.539,0.747,2.853,2.059,2.159,1.242,3.835,2.88,212.0,478.0
2015-02-15,Karachi,Pakistan,67.0501,24.8667,[66.5501 24.3667 67.5501 25.3667],1.541,0.752,2.934,2.062,2.215,1.239,4.04,2.896,235.0,490.0
2015-02-16,Karachi,Pakistan,67.0501,24.8667,[66.5501 24.3667 67.5501 25.3667],1.539,0.747,2.934,2.068,2.111,1.229,3.842,2.825,213.0,493.0
2015-02-17,Karachi,Pakistan,67.0501,24.8667,[66.5501 24.3667 67.5501 25.3667],1.515,0.678,2.853,2.04,2.173,1.195,3.786,2.826,233.0,482.0
2015-02-18,Karachi,Pakistan,67.0501,24.8667,[66.5501 24.3667 67.5501 25.3667],1.539,0.702,3.115,2.129,2.175,1.205,3.843,2.825,213.0,495.0
2015-02-19,Karachi,Pakistan,67.0501,24.8667,[66.5501 24.3667 67.5501 25.3667],1.689,0.747,3.131,2.127,2.17,1.17,3.838,2.761,236.0,476.0
2015-02-20,Karachi,Pakistan,67.0501,24.8667,[66.5501 24.3667 67.5501 25.3667],1.686,0.675,2.838,2.075,2.245,1.233,3.975,2.843,205.0,493.0
2015-02-21,Karachi,Pakistan,67.0501,24.8667,[66.5501 24.3667 67.5501 25.3667],1.539,0.697,2.838,2.047,2.211,1.242,3.993,2.881,178.0,482.0
2015-02-22,Karachi,Pakistan,67.0501,24.8667,[66.5501 24.3667 67.5501 25.3667],1.539,0.785,2.838,1.998,2.246,1.258,3.987,2.876,203.0,503.0
2015-02-23,Karachi,Pakistan,67.0501,24.8667,[66.5501 24.3667 67.5501 25.3667],1.719,0.933,2.932,2.15,2.217,1.253,4.051,2.888,187.0,491.0
2015-02-24,Karachi,Pakistan,67.0501,24.8667,[66.5501 24.3667 67.5501 25.3667],1.787,0.933,2.932,2.198,2.305,1.274,4.055,2.878,213.0,489.0
2015-02-25,Karachi,Pakistan,67.0501,24.8667,[66.5501 24.3667 67.5501 25.3667],1.633,0.879,2.838,1.999,2.309,1.243,4.349,2.926,194.0,501.0
2015-02-26,Karachi,Pakistan,67.0501,24.8667,[66.5501 24.3667 67.5501 25.3667],1.596,0.85,2.57,1.949,2.287,1.239,3.985,2.821,213.0,526.0
2015-02-27,Karachi,Pakistan,67.0501,24.8667,[66.5501 24.3667 67.5501 25.3667],1.656,0.887,2.838,2.039,2.326,1.225,4.134,2.899,182.0,535.0
2015-02-28,Karachi,Pakistan,67.0501,24.8667,[66.5501 24.3667 67.5501 25.3667],1.596,0.887,2.519,1.986,2.239,1.223,3.982,2.842,190.0,525.0
2015-03-01,Karachi,Pakistan,67.0501,24.8667,[66.5501 24.3667 67.5501 25.3667],1.656,0.85,2.565,2.026,2.35,1.287,4.153,3.009,170.0,552.0
2015-03-02,Karachi,Pakistan,67.0501,24.8667,[66.5501 24.3667 67.5501 25.3667],1.663,0.956,2.838,2.102,2.283,1.34,4.066,2.991,166.0,538.0
2015-03-03,Karachi,Pakistan,67.0501,24.8667,[66.5501 24.3667 67.5501 25.3667],1.689,0.999,2.834,2.092,2.277,1.353,4.009,2.973,197.0,547.0
2015-03-04,Karachi,Pakistan,67.0501,24.8667,[66.5501 24.3667 67.5501 25.3667],1.693,1.033,2.838,2.141,2.236,1.328,3.903,2.914,177.0,549.0
2015-03-05,Karachi,Pakistan,67.0501,24.8667,[66.5501 24.3667 67.5501 25.3667],1.689,1.042,2.854,2.125,2.196,1.32,3.816,2.818,200.0,534.0
2015-03-06,Karachi,Pakistan,67.0501,24.8667,[66.5501 24.3667 67.5501 25.3667],1.633,1.06,2.834,2.129,2.149,1.333,3.722,2.804,177.0,543.0
2015-03-07,Karachi,Pakistan,67.0501,24.8667,[66.5501 24.3667 67.5501 25.3667],1.554,1.005,2.834,2.075,2.078,1.264,3.622,2.73,199.0,522.0
2015-03-08,Karachi,Pakistan,67.0501,24.8667,[66.5501 24.3667 67.5501 25.3667],1.607,1.033,2.854,2.148,2.077,1.246,3.462,2.687,192.0,537.0
2015-03-09,Karachi,Pakistan,67.0501,24.8667,[66.5501 24.3667 67.5501 25.3667],1.634,1.061,3.041,2.38,2.002,1.203,3.502,2.685,189.0,525.0
2015-03-10,Karachi,Pakistan,67.0501,24.8667,[66.5501 24.3667 67.5501 25.3667],1.634,1.061,3.1,2.427,2.017,1.205,3.546,2.684,212.0,547.0
2015-03-11,Karachi,Pakistan,67.0501,24.8667,[66.5501 24.3667 67.5501 25.3667],1.634,1.074,3.212,2.445,1.931,1.146,3.348,2.564,195.0,535.0
2015-03-12,Karachi,Pakistan,67.0501,24.8667,[66.5501 24.3667 67.5501 25.3667],1.599,1.042,3.212,2.433,1.913,1.158,3.291,2.513,223.0,532.0
2015-03-13,Karachi,Pakistan,67.0501,24.8667,[66.5501 24.3667 67.5501 25.3667],1.613,1.082,3.613,2.535,1.927,1.143,3.416,2.555,204.0,543.0
2015-03-14,Karachi,Pakistan,67.0501,24.8667,[66.5501 24.3667 67.5501 25.3667],1.777,1.106,3.933,2.683,1.952,1.102,3.474,2.547,223.0,522.0
2015-03-15,Karachi,Pakistan,67.0501,24.8667,[66.5501 24.3667 67.5501 25.3667],1.953,1.186,4.22,2.771,1.991,1.081,3.527,2.567,215.0,484.0
2015-03-16,Karachi,Pakistan,67.0501,24.8667,[66.5501 24.3667 67.5501 25.3667],1.805,1.074,3.658,2.563,1.848,1.007,3.348,2.41,247.0,472.0
2015-03-17,Karachi,Pakistan,67.0501,24.8667,[66.5501 24.3667 67.5501 25.3667],1.689,1.015,3.658,2.508,1.858,1.011,3.346,2.414,242.0,495.0
2015-03-18,Karachi,Pakistan,67.0501,24.8667,[66.5501 24.3667 67.5501 25.3667],1.805,1.043,3.664,2.553,1.887,1.011,3.415,2.456,231.0,476.0
2015-03-19,Karachi,Pakistan,67.0501,24.8667,[66.5501 24.3667 67.5501 25.3667],1.805,1.043,3.658,2.538,1.876,1.046,3.379,2.452,250.0,485.0
2015-03-20,Karachi,Pakistan,67.0501,24.8667,[66.5501 24.3667 67.5501 25.3667],1.842,1.099,3.774,2.621,1.825,1.044,3.449,2.448,253.0,488.0
2015-03-21,Karachi,Pakistan,67.0501,24.8667,[66.5501 24.3667 67.5501 25.3667],1.909,1.043,3.774,2.641,1.836,1.074,3.424,2.474,268.0,475.0
2015-03-22,Karachi,Pakistan,67.0501,24.8667,[66.5501 24.3667 67.5501 25.3667],1.979,1.164,3.847,2.722,1.822,1.088,3.48,2.49,254.0,487.0
2015-03-23,Karachi,Pakistan,67.0501,24.8667,[66.5501 24.3667 67.5501 25.3667],1.953,1.164,3.774,2.692,1.815,1.089,3.524,2.487,280.0,470.0
2015-03-24,Karachi,Pakistan,67.0501,24.8667,[66.5501 24.3667 67.5501 25.3667],1.909,1.07,3.658,2.61,1.768,1.007,3.318,2.416,249.0,487.0
2015-03-25,Karachi,Pakistan,67.0501,24.8667,[66.5501 24.3667 67.5501 25.3667],1.546,0.913,2.968,2.177,1.715,1.016,3.175,2.337,247.0,474.0
2015-03-26,Karachi,Pakistan,67.0501,24.8667,[66.5501 24.3667 67.5501 25.3667],1.529,0.847,2.694,2.077,1.708,0.968,3.162,2.314,272.0,496.0
2015-03-27,Karachi,Pakistan,67.0501,24.8667,[66.5501 24.3667 67.5501 25.3667],1.523,0.821,2.658,2.047,1.687,0.949,3.093,2.289,247.0,483.0
2015-03-28,Karachi,Pakistan,67.0501,24.8667,[66.5501 24.3667 67.5501 25.3667],1.513,0.821,2.658,2.068,1.662,0.947,2.987,2.278,273.0,482.0
2015-03-29,Karachi,Pakistan,67.0501,24.8667,[66.5501 24.3667 67.5501 25.3667],1.347,0.795,2.61,1.897,1.633,0.965,2.985,2.256,272.0,489.0
2015-03-30,Karachi,Pakistan,67.0501,24.8667,[66.5501 24.3667 67.5501 25.3667],1.408,0.813,2.646,1.933,1.609,0.969,3.015,2.233,293.0,517.0
2015-03-31,Karachi,Pakistan,67.0501,24.8667,[66.5501 24.3667 67.5501 25.3667],1.345,0.8,2.658,1.968,1.601,0.971,3.008,2.266,261.0,528.0
2015-04-01,Karachi,Pakistan,67.0501,24.8667,[66.5501 24.3667 67.5501 25.3667],1.485,0.913,2.758,2.017,1.596,0.97,2.961,2.233,279.0,518.0
2015-04-02,Karachi,Pakistan,67.0501,24.8667,[66.5501 24.3667 67.5501 25.3667],1.427,0.894,2.646,1.994,1.57,0.924,2.922,2.192,275.0,546.0
2015-04-03,Karachi,Pakistan,67.0501,24.8667,[66.5501 24.3667 67.5501 25.3667],1.4,0.847,2.646,1.99,1.55,0.874,2.913,2.189,276.0,527.0
2015-04-04,Karachi,Pakistan,67.0501,24.8667,[66.5501 24.3667 67.5501 25.3667],1.387,0.829,2.758,1.995,1.564,0.836,2.823,2.184,281.0,536.0
2015-04-05,Karachi,Pakistan,67.0501,24.8667,[66.5501 24.3667 67.5501 25.3667],1.366,0.833,2.747,1.933,1.535,0.832,2.796,2.126,292.0,538.0
2015-04-06,Karachi,Pakistan,67.0501,24.8667,[66.5501 24.3667 67.5501 25.3667],1.403,0.837,2.758,1.958,1.593,0.859,2.787,2.119,302.0,526.0
2015-04-07,Karachi,Pakistan,67.0501,24.8667,[66.5501 24.3667 67.5501 25.3667],1.366,0.829,2.557,1.909,1.579,0.851,2.723,2.086,284.0,535.0
2015-04-08,Karachi,Pakistan,67.0501,24.8667,[66.5501 24.3667 67.5501 25.3667],1.4,0.837,2.733,1.966,1.582,0.856,2.735,2.1,310.0,517.0
2015-04-09,Karachi,Pakistan,67.0501,24.8667,[66.5501 24.3667 67.5501 25.3667],1.545,0.873,3.126,2.204,1.58,0.872,2.774,2.095,279.0,535.0
2015-04-10,Karachi,Pakistan,67.0501,24.8667,[66.5501 24.3667 67.5501 25.3667],1.626,0.946,3.009,2.193,1.603,0.897,2.775,2.104,276.0,524.0
2015-04-11,Karachi,Pakistan,67.0501,24.8667,[66.5501 24.3667 67.5501 25.3667],1.62,0.946,2.979,2.18,1.57,0.865,2.767,2.082,308.0,549.0
2015-04-12,Karachi,Pakistan,67.0501,24.8667,[66.5501 24.3667 67.5501 25.3667],1.633,0.964,2.979,2.143,1.6,0.877,2.76,2.085,292.0,537.0
2015-04-13,Karachi,Pakistan,67.0501,24.8667,[66.5501 24.3667 67.5501 25.3667],1.607,0.946,2.899,2.13,1.564,0.859,2.751,2.033,301.0,536.0
2015-04-14,Karachi,Pakistan,67.0501,24.8667,[66.5501 24.3667 67.5501 25.3667],1.636,0.964,2.899,2.148,1.596,0.871,2.708,2.056,299.0,544.0
2015-04-15,Karachi,Pakistan,67.0501,24.8667,[66.5501 24.3667 67.5501 25.3667],1.633,0.949,2.851,2.124,1.533,0.875,2.631,2.002,318.0,520.0
2015-04-16,Karachi,Pakistan,67.0501,24.8667,[66.5501 24.3667 67.5501 25.3667],1.622,0.934,2.899,2.141,1.51,0.864,2.649,1.994,286.0,482.0
2015-04-17,Karachi,Pakistan,67.0501,24.8667,[66.5501 24.3667 67.5501 25.3667],1.633,0.946,2.651,2.036,1.528,0.875,2.582,1.979,303.0,473.0
2015-04-18,Karachi,Pakistan,67.0501,24.8667,[66.5501 24.3667 67.5501 25.3667],1.633,0.973,2.613,2.021,1.509,0.89,2.549,1.936,295.0,502.0
2015-04-19,Karachi,Pakistan,67.0501,24.8667,[66.5501 24.3667 67.5501 25.3667],1.573,0.934,2.563,1.888,1.508,0.889,2.56,1.905,283.0,488.0
2015-04-20,Karachi,Pakistan,67.0501,24.8667,[66.5501 24.3667 67.5501 25.3667],1.505,0.934,2.555,1.852,1.497,0.897,2.536,1.887,288.0,497.0
2015-04-21,Karachi,Pakistan,67.0501,24.8667,[66.5501 24.3667 67.5501 25.3667],1.425,0.928,2.524,1.825,1.456,0.864,2.427,1.819,297.0,498.0
2015-04-22,Karachi,Pakistan,67.0501,24.8667,[66.5501 24.3667 67.5501 25.3667],1.403,0.888,2.488,1.817,1.442,0.858,2.424,1.807,311.0,484.0
2015-04-23,Karachi,Pakistan,67.0501,24.8667,[66.5501 24.3667 67.5501 25.3667],1.383,0.891,2.432,1.762,1.445,0.863,2.389,1.813,293.0,494.0
2015-04-24,Karachi,Pakistan,67.0501,24.8667,[66.5501 24.3667 67.5501 25.3667],1.371,0.846,2.411,1.729,1.456,0.872,2.428,1.826,312.0,470.0
2015-04-25,Karachi,Pakistan,67.0501,24.8667,[66.5501 24.3667 67.5501 25.3667],1.263,0.78,2.259,1.694,1.402,0.853,2.299,1.791,281.0,487.0
2015-04-26,Karachi,Pakistan,67.0501,24.8667,[66.5501 24.3667 67.5501 25.3667],1.256,0.722,2.119,1.604,1.423,0.865,2.33,1.811,277.0,474.0
2015-04-27,Karachi,Pakistan,67.0501,24.8667,[66.5501 24.3667 67.5501 25.3667],1.239,0.693,2.067,1.595,1.409,0.842,2.273,1.792,303.0,496.0
2015-04-28,Karachi,Pakistan,67.0501,24.8667,[66.5501 24.3667 67.5501 25.3667],1.263,0.703,2.201,1.665,1.405,0.858,2.269,1.795,289.0,490.0
2015-04-29,Karachi,Pakistan,67.0501,24.8667,[66.5501 24.3667 67.5501 25.3667],1.239,0.685,2.119,1.627,1.368,0.831,2.254,1.732,296.0,489.0
2015-04-30,Karachi,Pakistan,67.0501,24.8667,[66.5501 24.3667 67.5501 25.3667],1.184,0.656,2.112,1.577,1.344,0.831,2.235,1.714,300.0,503.0
2015-05-01,Karachi,Pakistan,67.0501,24.8667,[66.5501 24.3667 67.5501 25.3667],1.116,0.644,2.067,1.526,1.313,0.812,2.137,1.657,319.0,525.0
2015-05-02,Karachi,Pakistan,67.0501,24.8667,[66.5501 24.3667 67.5501 25.3667],1.013,0.578,1.914,1.483,1.275,0.804,2.073,1.602,286.0,534.0
2015-05-03,Karachi,Pakistan,67.0501,24.8667,[66.5501 24.3667 67.5501 25.3667],0.934,0.424,1.704,1.312,1.222,0.763,2.026,1.553,305.0,523.0
2015-05-04,Karachi,Pakistan,67.0501,24.8667,[66.5501 24.3667 67.5501 25.3667],0.918,0.369,1.534,1.3,1.246,0.762,2.002,1.551,296.0,548.0
2015-05-05,Karachi,Pakistan,67.0501,24.8667,[66.5501 24.3667 67.5501 25.3667],0.967,0.401,1.749,1.379,1.248,0.75,2.033,1.557,282.0,542.0
2015-05-06,Karachi,Pakistan,67.0501,24.8667,[66.5501 24.3667 67.5501 25.3667],0.97,0.432,1.772,1.415,1.257,0.762,2.071,1.572,286.0,551.0
2015-05-07,Karachi,Pakistan,67.0501,24.8667,[66.5501 24.3667 67.5501 25.3667],0.997,0.499,1.914,1.442,1.237,0.778,2.053,1.55,290.0,553.0
2015-05-08,Karachi,Pakistan,67.0501,24.8667,[66.5501 24.3667 67.5501 25.3667],0.97,0.499,1.927,1.427,1.198,0.751,1.95,1.5,306.0,540.0
2015-05-09,Karachi,Pakistan,67.0501,24.8667,[66.5501 24.3667 67.5501 25.3667],0.984,0.464,1.952,1.441,1.171,0.726,1.94,1.482,297.0,556.0
2015-05-10,Karachi,Pakistan,67.0501,24.8667,[66.5501 24.3667 67.5501 25.3667],0.976,0.5,1.777,1.413,1.199,0.738,1.97,1.498,317.0,529.0
2015-05-11,Karachi,Pakistan,67.0501,24.8667,[66.5501 24.3667 67.5501 25.3667],0.918,0.465,1.862,1.455,1.191,0.735,2.001,1.485,286.0,548.0
2015-05-12,Karachi,Pakistan,67.0501,24.8667,[66.5501 24.3667 67.5501 25.3667],1.013,0.507,1.944,1.448,1.185,0.71,2.023,1.464,281.0,535.0
2015-05-13,Karachi,Pakistan,67.0501,24.8667,[66.5501 24.3667 67.5501 25.3667],0.953,0.499,1.808,1.352,1.183,0.721,1.989,1.464,302.0,553.0
2015-05-14,Karachi,Pakistan,67.0501,24.8667,[66.5501 24.3667 67.5501 25.3667],0.97,0.5,1.777,1.328,1.16,0.691,1.951,1.455,290.0,546.0
2015-05-15,Karachi,Pakistan,67.0501,24.8667,[66.5501 24.3667 67.5501 25.3667],0.97,0.507,1.777,1.33,1.197,0.707,1.933,1.474,292.0,542.0
2015-05-16,Karachi,Pakistan,67.0501,24.8667,[66.5501 24.3667 67.5501 25.3667],0.976,0.499,1.787,1.338,1.189,0.705,1.942,1.487,296.0,557.0
2015-05-17,Karachi,Pakistan,67.0501,24.8667,[66.5501 24.3667 67.5501 25.3667],0.92,0.499,1.764,1.292,1.196,0.722,1.957,1.487,316.0,531.0
2015-05-18,Karachi,Pakistan,67.0501,24.8667,[66.5501 24.3667 67.5501 25.3667],1.052,0.604,1.944,1.469,1.227,0.738,1.996,1.519,285.0,493.0
2015-05-19,Karachi,Pakistan,67.0501,24.8667,[66.5501 24.3667 67.5501 25.3667],0.906,0.488,1.764,1.281,1.201,0.702,1.957,1.485,307.0,485.0
2015-05-20,Karachi,Pakistan,67.0501,24.8667,[66.5501 24.3667 67.5501 25.3667],0.871,0.452,1.686,1.189,1.209,0.714,1.93,1.468,301.0,502.0
2015-05-21,Karachi,Pakistan,67.0501,24.8667,[66.5501 24.3667 67.5501 25.3667],0.869,0.479,1.616,1.115,1.195,0.7,1.907,1.44,289.0,491.0
2015-05-22,Karachi,Pakistan,67.0501,24.8667,[66.5501 24.3667 67.5501 25.3667],0.847,0.412,1.6,1.093,1.188,0.684,1.89,1.439,294.0,501.0
2015-05-23,Karachi,Pakistan,67.0501,24.8667,[66.5501 24.3667 67.5501 25.3667],0.869,0.419,1.606,1.113,1.215,0.718,1.949,1.487,297.0,499.0
2015-05-24,Karachi,Pakistan,67.0501,24.8667,[66.5501 24.3667 67.5501 25.3667],0.869,0.437,1.516,1.108,1.257,0.764,1.977,1.526,309.0,486.0
2015-05-25,Karachi,Pakistan,67.0501,24.8667,[66.5501 24.3667 67.5501 25.3667],0.85,0.346,1.6,1.123,1.265,0.754,2.007,1.535,297.0,505.0
2015-05-26,Karachi,Pakistan,67.0501,24.8667,[66.5501 24.3667 67.5501 25.3667],0.938,0.439,1.7,1.161,1.267,0.761,1.981,1.529,317.0,481.0
2015-05-27,Karachi,Pakistan,67.0501,24.8667,[66.5501 24.3667 67.5501 25.3667],0.847,0.344,1.517,1.103,1.233,0.765,1.965,1.528,286.0,499.0
2015-05-28,Karachi,Pakistan,67.0501,24.8667,[66.5501 24.3667 67.5501 25.3667],1.07,0.489,1.806,1.267,1.262,0.767,1.955,1.523,282.0,486.0
2015-05-29,Karachi,Pakistan,67.0501,24.8667,[66.5501 24.3667 67.5501 25.3667],1.067,0.489,1.868,1.301,1.256,0.766,1.953,1.511,303.0,502.0
2015-05-30,Karachi,Pakistan,67.0501,24.8667,[66.5501 24.3667 67.5501 25.3667],1.12,0.489,1.974,1.363,1.263,0.762,1.934,1.497,291.0,495.0
2015-05-31,Karachi,Pakistan,67.0501,24.8667,[66.5501 24.3667 67.5501 25.3667],1.12,0.509,1.974,1.375,1.232,0.758,1.884,1.462,293.0,493.0
2015-06-01,Karachi,Pakistan,67.0501,24.8667,[66.5501 24.3667 67.5501 25.3667],1.176,0.543,2.102,1.429,1.257,0.759,1.961,1.483,273.0,505.0
2015-06-02,Karachi,Pakistan,67.0501,24.8667,[66.5501 24.3667 67.5501 25.3667],1.176,0.549,1.88,1.392,1.269,0.783,1.888,1.474,292.0,529.0
2015-06-03,Karachi,Pakistan,67.0501,24.8667,[66.5501 24.3667 67.5501 25.3667],1.353,0.799,2.215,1.632,1.299,0.836,1.932,1.514,260.0,535.0
2015-06-04,Karachi,Pakistan,67.0501,24.8667,[66.5501 24.3667 67.5501 25.3667],1.326,0.69,1.931,1.522,1.305,0.799,1.895,1.501,281.0,525.0
2015-06-05,Karachi,Pakistan,67.0501,24.8667,[66.5501 24.3667 67.5501 25.3667],1.326,0.677,1.931,1.53,1.298,0.811,1.902,1.499,273.0,547.0
2015-06-06,Karachi,Pakistan,67.0501,24.8667,[66.5501 24.3667 67.5501 25.3667],1.312,0.69,1.88,1.473,1.299,0.81,1.911,1.491,261.0,533.0
2015-06-07,Karachi,Pakistan,67.0501,24.8667,[66.5501 24.3667 67.5501 25.3667],1.248,0.674,1.871,1.423,1.282,0.8,1.894,1.447,265.0,545.0
2015-06-08,Karachi,Pakistan,67.0501,24.8667,[66.5501 24.3667 67.5501 25.3667],1.251,0.674,1.871,1.427,1.238,0.77,1.772,1.372,270.0,546.0
2015-06-09,Karachi,Pakistan,67.0501,24.8667,[66.5501 24.3667 67.5501 25.3667],1.231,0.663,1.871,1.408,1.23,0.757,1.742,1.338,281.0,532.0
2015-06-10,Karachi,Pakistan,67.0501,24.8667,[66.5501 24.3667 67.5501 25.3667],1.221,0.634,1.868,1.402,1.223,0.744,1.718,1.328,270.0,545.0
2015-06-11,Karachi,Pakistan,67.0501,24.8667,[66.5501 24.3667 67.5501 25.3667],1.237,0.663,1.871,1.419,1.236,0.749,1.744,1.343,292.0,524.0
2015-06-12,Karachi,Pakistan,67.0501,24.8667,[66.5501 24.3667 67.5501 25.3667],1.085,0.61,1.676,1.279,1.207,0.763,1.681,1.312,262.0,542.0
2015-06-13,Karachi,Pakistan,67.0501,24.8667,[66.5501 24.3667 67.5501 25.3667],1.208,0.663,1.728,1.3,1.227,0.774,1.69,1.31,257.0,530.0
2015-06-14,Karachi,Pakistan,67.0501,24.8667,[66.5501 24.3667 67.5501 25.3667],1.206,0.651,1.727,1.26,1.198,0.749,1.682,1.293,276.0,549.0
2015-06-15,Karachi,Pakistan,67.0501,24.8667,[66.5501 24.3667 67.5501 25.3667],1.245,0.675,1.77,1.326,1.217,0.765,1.709,1.324,260.0,539.0
2015-06-16,Karachi,Pakistan,67.0501,24.8667,[66.5501 24.3667 67.5501 25.3667],1.268,0.683,1.837,1.407,1.229,0.79,1.711,1.358,286.0,538.0
2015-06-17,Karachi,Pakistan,67.0501,24.8667,[66.5501 24.3667 67.5501 25.3667],1.343,0.723,1.894,1.478,1.241,0.793,1.739,1.382,285.0,548.0
2015-06-18,Karachi,Pakistan,67.0501,24.8667,[66.5501 24.3667 67.5501 25.3667],1.348,0.732,1.901,1.49,1.242,0.789,1.741,1.383,303.0,525.0
2015-06-19,Karachi,Pakistan,67.0501,24.8667,[66.5501 24.3667 67.5501 25.3667],1.398,0.841,2.108,1.61,1.249,0.81,1.77,1.414,271.0,486.0
2015-06-20,Karachi,Pakistan,67.0501,24.8667,[66.5501 24.3667 67.5501 25.3667],1.343,0.762,1.983,1.502,1.262,0.803,1.781,1.417,292.0,477.0